DateTimeUTC,F1_A11,F1_S11,BsB_S11,BsG_S11,BsR_S11,BbsB_S11,BbsG_S11,BbsR_S11,BaB_A11,BaG_A11,BaR_A11,Tu_S11,T_S11,Uu_S11,U_S11,P_S11,T1_A11
2021-05-11T01:00:00Z,00000200,21000000,,,,,,,-000.20,-000.23,-000.42,15.6,23.1,,00.0,0665.2,30.9
2021-05-11T01:01:00Z,00000200,21000000,,,,,,,0000.18,0000.00,-000.04,15.6,23.2,,00.0,0665.2,30.9
2021-05-11T01:02:00Z,00000200,21000000,,,,,,,-000.44,-000.13,0000.16,15.6,23.2,,00.0,0665.2,30.9
2021-05-11T01:03:00Z,00000200,61000000,,,,,,,0000.61,0000.57,0000.07,15.6,23.2,,00.0,0665.2,30.9
2021-05-11T01:04:00Z,00000200,41000000,0001.21,0001.04,0000.57,0000.38,0000.23,0000.24,0000.92,0000.47,0000.47,15.9,23.0,,00.0,0666.1,30.9
2021-05-11T01:05:00Z,00000200,01000000,0002.12,0001.14,0000.95,0000.75,0000.07,-000.04,0000.71,0001.01,0000.66,16.0,23.0,,00.0,0666.2,30.9
2021-05-11T01:06:00Z,00000200,01000000,0002.34,0001.19,0000.71,0000.29,0000.08,0000.13,0001.14,0000.71,0000.39,16.0,22.9,,00.0,0666.2,30.9
2021-05-11T01:07:00Z,00000200,01000000,0002.51,0001.31,0000.84,0000.26,0000.09,0000.36,0000.36,0000.43,0000.73,15.9,22.9,,00.0,0666.2,30.8
2021-05-11T01:08:00Z,00000200,01000000,0002.10,0001.31,0001.03,0000.24,0000.21,0000.25,0000.78,0000.70,0000.27,15.9,22.8,,00.0,0666.3,30.8
2021-05-11T01:09:00Z,00000200,01000000,0002.08,0001.31,0000.70,0000.61,0000.13,0000.02,0000.71,0000.23,0000.18,15.8,22.8,,00.0,0666.2,30.8
2021-05-11T01:10:00Z,00000200,01000000,0002.00,0001.62,0001.01,-000.08,0000.15,0000.19,0000.30,0000.52,0000.57,15.8,22.8,,00.0,0666.3,30.8
2021-05-11T01:11:00Z,00000200,01000000,0002.00,0001.34,0000.74,0000.58,0000.17,0000.09,0000.59,0000.53,-000.10,15.8,22.8,,00.0,0666.3,30.8
2021-05-11T01:12:00Z,00000200,01000000,0001.48,0001.40,0000.76,0000.90,0000.26,0000.24,0000.55,0000.73,0000.52,15.8,22.8,,00.0,0666.3,30.8
2021-05-11T01:13:00Z,00000200,01000000,0002.06,0001.05,0000.59,0000.07,0000.21,0000.03,0000.69,0000.80,0000.62,15.8,22.8,,00.0,0666.3,30.9
2021-05-11T01:14:00Z,00000200,01000000,0001.90,0001.69,0000.86,0000.21,0000.10,-000.20,0000.83,0000.23,0000.42,15.8,22.8,,00.0,0666.3,30.9
2021-05-11T01:15:00Z,00000200,01000000,0001.81,0001.47,0000.63,0000.36,0000.20,0000.21,0000.00,0000.39,0000.25,15.8,22.8,,00.0,0666.3,30.9
2021-05-11T01:16:00Z,00000200,01000000,0001.41,0001.06,0000.71,0000.36,0000.04,0000.03,0000.78,0000.42,0000.35,15.9,22.8,,00.0,0666.3,30.9
2021-05-11T01:17:00Z,00000200,01000000,0001.21,0001.25,0000.58,0000.51,0000.25,0000.19,0000.75,0001.06,0000.69,15.9,22.8,,00.0,0666.3,30.9
2021-05-11T01:18:00Z,00000200,01000000,0001.23,0000.87,0000.43,0000.14,0000.25,-000.06,0000.81,0000.35,0000.25,15.9,22.9,,00.0,0666.3,30.9
2021-05-11T01:19:00Z,00000200,01000000,0001.29,0001.01,0000.59,0000.38,0000.13,0000.23,0000.81,0000.97,0000.76,15.9,22.9,,00.0,0666.3,30.9
2021-05-11T01:20:00Z,00000200,01000000,0001.25,0000.91,0000.32,-000.18,0000.10,0000.12,0000.93,0000.84,0000.81,16.0,22.9,,00.0,0666.3,30.9
2021-05-11T01:21:00Z,00000200,01000000,0001.44,0001.04,0000.46,-000.13,0000.18,0000.30,0001.01,0000.95,0000.33,15.9,22.9,,00.0,0666.3,30.9
2021-05-11T01:22:00Z,00000200,01000000,0001.47,0001.17,0000.82,0000.67,0000.37,0000.18,0000.93,0000.70,0000.77,15.9,22.8,,00.0,0666.3,30.8
2021-05-11T01:23:00Z,00000200,01000000,0002.07,0001.51,0000.70,0000.12,0000.00,0000.16,0000.80,0000.63,0000.21,15.9,22.8,,00.0,0666.3,30.8
2021-05-11T01:24:00Z,00000200,01000000,0001.71,0001.69,0000.57,0000.39,0000.27,0000.29,0000.71,0000.86,0000.45,15.8,22.8,,00.0,0666.3,30.8
2021-05-11T01:25:00Z,00000200,01000000,0001.52,0001.21,0000.61,0000.40,0000.20,0000.15,0000.50,0000.37,0000.69,15.8,22.7,,00.0,0666.4,30.8
2021-05-11T01:26:00Z,00000200,01000000,0002.25,0001.21,0000.36,0000.88,0000.05,0000.14,0000.23,0000.48,0000.07,15.8,22.7,,00.0,0666.4,30.8
2021-05-11T01:27:00Z,00000200,01000000,0001.58,0001.09,0000.53,0000.57,0000.35,-000.05,0000.39,0000.10,0000.20,15.8,22.7,,00.0,0666.4,30.8
2021-05-11T01:28:00Z,00000200,01000000,0001.74,0001.22,0000.55,0000.71,0000.07,-000.01,0000.55,0000.20,0000.11,15.8,22.7,,00.0,0666.4,30.9
2021-05-11T01:29:00Z,00000200,01000000,0001.17,0001.44,0000.58,0000.25,0000.09,-000.06,0000.57,0000.62,0000.88,15.8,22.7,,00.0,0666.4,30.9
2021-05-11T01:30:00Z,00000200,01000000,0002.14,0001.16,0000.81,0000.63,0000.11,0000.09,0000.72,0000.30,0000.07,15.8,22.7,,00.0,0666.4,30.9
2021-05-11T01:31:00Z,00000200,01000000,0001.70,0001.22,0000.42,0000.56,0000.32,0000.13,0000.70,0000.91,0000.48,15.8,22.8,,00.0,0666.4,30.9
2021-05-11T01:32:00Z,00000200,01000000,0001.72,0001.32,0000.53,0000.91,0000.09,-000.20,0000.76,0000.63,0000.51,15.9,22.8,,00.0,0666.4,30.9
2021-05-11T01:33:00Z,00000200,01000000,0001.81,0001.10,0000.64,-000.11,-000.04,0000.12,0000.58,0000.59,0000.44,15.9,22.8,,00.0,0666.4,30.9
2021-05-11T01:34:00Z,00000200,01000000,0002.08,0000.89,0000.72,-000.09,0000.22,0000.10,0000.61,0000.66,0000.66,15.9,22.8,,00.0,0666.4,30.9
2021-05-11T01:35:00Z,00000200,01000000,0001.56,0000.55,0000.32,0000.45,0000.22,0000.03,0001.16,0000.84,0000.41,15.9,22.8,,00.0,0666.4,30.9
2021-05-11T01:36:00Z,00000200,01000000,0001.03,0000.75,0000.00,-000.10,0000.16,-000.13,0000.72,0000.80,0000.70,15.9,22.8,,00.0,0666.4,30.8
2021-05-11T01:37:00Z,00000200,01000000,0000.49,0000.77,0000.31,0000.18,0000.21,-000.07,0000.92,0000.48,0000.34,15.8,22.7,,00.0,0666.4,30.8
2021-05-11T01:38:00Z,00000200,01000000,0001.01,0000.88,0000.49,0000.47,0000.03,-000.07,-000.00,0000.43,0000.46,15.8,22.7,,00.0,0666.4,30.8
2021-05-11T01:39:00Z,00000200,01000000,0001.40,0000.80,0000.41,0000.58,0000.06,0000.01,0000.96,0000.47,0000.25,15.8,22.7,,00.0,0666.4,30.8
2021-05-11T01:40:00Z,00000200,01000000,0001.52,0000.97,0000.17,0000.65,-000.10,-000.15,0000.47,0000.69,0000.61,15.7,22.7,,00.0,0666.4,30.8
2021-05-11T01:41:00Z,00000200,01000000,0000.83,0000.68,0000.42,0000.39,0000.14,0000.13,0000.17,0000.58,0000.36,15.7,22.6,,00.0,0666.4,30.8
2021-05-11T01:42:00Z,00000200,01000000,0001.69,0000.80,0000.42,0000.19,0000.13,0000.09,0001.03,0000.45,0000.22,15.7,22.6,,00.0,0666.4,30.8
2021-05-11T01:43:00Z,00000200,01000000,0000.99,0000.99,0000.49,0000.57,0000.25,0000.13,-000.00,0000.29,0000.04,15.7,22.6,,00.0,0666.4,30.8
2021-05-11T01:44:00Z,00000200,01000000,0001.21,0000.71,0000.32,0000.35,-000.06,0000.02,0000.66,0000.54,0000.49,15.7,22.6,,00.0,0666.4,30.8
2021-05-11T01:45:00Z,00000200,01000000,0000.51,0000.82,0000.12,0000.46,0000.15,-000.12,0000.58,0000.54,0000.60,15.7,22.7,,00.0,0666.4,30.8
2021-05-11T01:46:00Z,00000200,01000000,0001.46,0001.20,0000.53,-000.00,0000.22,-000.05,0001.10,0000.65,0000.05,15.8,22.7,,00.0,0666.4,30.9
2021-05-11T01:47:00Z,00000200,01000000,0001.56,0001.04,0000.23,0000.71,-000.07,-000.32,0000.36,0000.29,0000.75,15.8,22.7,,00.0,0666.4,30.9
2021-05-11T01:48:00Z,00000200,01000000,0001.09,0000.81,0000.67,0000.42,0000.21,0000.03,-000.01,0000.33,-000.06,15.8,22.7,,00.0,0666.4,30.9
2021-05-11T01:49:00Z,00000200,01000000,0001.09,0000.83,0000.27,0000.73,0000.11,0000.05,0000.69,0000.32,0000.28,15.8,22.7,,00.0,0666.4,30.9
2021-05-11T01:50:00Z,00000200,01000000,0000.55,0000.36,0000.27,-000.08,-000.06,0000.13,0000.06,0000.45,0000.12,15.8,22.7,,00.0,0666.4,30.8
2021-05-11T01:51:00Z,00000200,01000000,0000.74,0000.69,0000.06,0000.74,-000.03,0000.39,0000.37,-000.17,0000.28,15.7,22.7,,00.0,0666.4,30.8
2021-05-11T01:52:00Z,00000200,01000000,0001.20,0000.40,0000.25,0000.17,0000.10,0000.03,0000.22,0000.44,0000.02,15.7,22.6,,00.0,0666.4,30.8
2021-05-11T01:53:00Z,00000200,01000000,0000.15,0000.59,0000.24,0000.68,-000.09,0000.08,0000.31,0000.28,0000.35,15.7,22.6,,00.0,0666.4,30.8
2021-05-11T01:54:00Z,00000200,01000000,0000.77,0000.51,0000.18,0000.18,0000.01,-000.05,0000.52,0000.43,0000.08,15.6,22.6,,00.0,0666.4,30.8
2021-05-11T01:55:00Z,00000200,01000000,0000.63,0000.35,0000.23,0000.33,0000.13,0000.21,-000.01,-000.08,0000.06,15.6,22.6,,00.0,0666.5,30.8
2021-05-11T01:56:00Z,00000200,01000000,0000.92,0000.71,0000.20,0000.29,0000.05,-000.03,0000.07,0000.20,-000.03,15.5,22.5,,00.0,0666.4,30.8
2021-05-11T01:57:00Z,00000200,41000000,,,,,,,0001.55,0001.55,0001.23,15.6,22.6,,00.0,0666.4,30.8
2021-05-11T01:58:00Z,00000200,61000000,,,,,,,-000.50,-000.89,-000.29,15.2,22.7,,00.0,0665.5,30.8
2021-05-11T01:59:00Z,00000200,21000000,,,,,,,-000.49,-000.08,-000.22,15.2,22.8,,00.0,0665.4,30.8
